Regional Weather Roundup
Issued by NWS

Home | Current Version | Previous Version | Graphics & Text | Print | Product List | Glossary Off
Versions: 1 2 3 4 5 6 7 8 9 10 11 12 13 14 15 16 17 18 19 20 21 22 23 24 25 26 27 28 29 30 31 32 33 34 35 36 37 38 39 40 41 42 43 44 45 46 47 48 49 50

000
ASUS43 KLOT 241908
RWRIL

ILLINOIS REGIONAL WEATHER ROUNDUP
NATIONAL WEATHER SERVICE CHICAGO/ROMEOVILLE IL
100 PM CST FRI NOV 24 2017

NOTE: "FAIR" INDICATES FEW OR NO CLOUDS BELOW 12,000 FEET WITH NO
SIGNIFICANT WEATHER AND/OR OBSTRUCTIONS TO VISIBILITY.

* THESE STATIONS ARE NOT UNDER NWS QUALITY CONTROL. THEY ALSO MAY NOT
  REPORT WEATHER SUCH AS PRECIPITATION OR FOG.

ILZ001-002-007-009-015-016-024-242000-
NORTHWEST ILLINOIS

CITY           SKY/WX    TMP DP  RH WIND       PRES   REMARKS
MOLINE         SUNNY     70  38  31 S25G35    29.43F
STERLING*      SUNNY     65  39  38 S10G16    29.48F
SAVANNA*       SUNNY     66  38  35 S15G22    29.43F
$$

ILZ003-004-008-010-011-017-018-242000-
NORTH CENTRAL ILLINOIS

CITY           SKY/WX    TMP DP  RH WIND       PRES   REMARKS
ROCKFORD       SUNNY     64  37  36 S18G30    29.48F
FREEPORT*      SUNNY     63  38  40 S22G29    29.45F
ROCHELLE*      SUNNY     61  40  45 S28G33    29.49F
DE KALB*       SUNNY     61  41  47 S26       29.51F
PERU*          SUNNY     62  37  40 S18G28    29.54F
$$

ILZ005-006-012>014-019>023-242000-
NORTHEAST ILLINOIS

CITY           SKY/WX    TMP DP  RH WIND       PRES   REMARKS
CHICAGO-OHARE  MOSUNNY   60  37  42 S20G25    29.54F
CHICAGO-MIDWAY MOSUNNY   59  37  44 S17G29    29.56F
AURORA         SUNNY     62  40  44 S23G30    29.54F
LANSING*       SUNNY     58  41  52 S22G30    29.61F
JOLIET*        SUNNY     61  39  44 S15G24    29.58F
WAUKEGAN       SUNNY     62  38  40 SW28G33   29.49F
DUPAGE AIRPORT SUNNY     60  40  47 S17G35    29.53F
KANKAKEE*      SUNNY     57  38  48 S20G29    29.64F
WHEELING       SUNNY     62  37  39 S21G26    29.53F
MORRIS*        SUNNY     62  39  43 S21G26    29.55F
ROMEOVILLE*    SUNNY     60  39  46 S21G30    29.56F
NORTHERLY ISL    N/A     57  33  40 S16         N/A
$$

LMZ740>746-242000-
SOUTHERN LAKE MICHIGAN

STATION/POSITION SKY/WX   TEMP    WIND        PRES    VSBY  WAVE
                          AIR SEA DIR/SP/G                  HT/PER
                          (F)     (DEG/KT/KT) (MB)    (MI)  (FT/S)
SOUTHERN BUOY              48 47  190/ 23/ 29 1000.1F         6/ 6
HARRISON CRIB              55     190/ 25/ 27   N/A
BURNHAM HARBOR             58     170/ 17/ 23   N/A
CALUMET HARBOR             57     190/ 12/ 20 1001.1F
BURNS HARBOR               56     190/ 22     1003.0F
MICHIGAN CITY              54     160/ 20/ 24   N/A
$$

ILZ025>027-034>036-040-047-049-050-058-095>099-242000-
WEST-CENTRAL ILLINOIS

CITY           SKY/WX    TMP DP  RH WIND       PRES   REMARKS
QUINCY         SUNNY     71  37  28 SW20G30   29.56F
GALESBURG*     SUNNY     69  40  35 S24G30    29.50F
MACOMB*        SUNNY     69  37  30 S24G31    29.54F
JACKSONVILLE*  SUNNY     67  37  32 S16G25    29.61F
PITTSFIELD*    SUNNY     72  38  29 S23       29.60F
$$

ILZ028>032-037-038-041>044-048-051>054-059>061-242000-
CENTRAL ILLINOIS

CITY           SKY/WX    TMP DP  RH WIND       PRES   REMARKS
PONTIAC        SUNNY     62  38  40 S21G32    29.61F
BLOOMINGTON    SUNNY     62  39  42 S20G30    29.62F
DECATUR        SUNNY     60  37  42 S15       29.68F
PEORIA         SUNNY     64  38  38 S23G36    29.57F
LACON*         SUNNY     64  37  37 S18G26    29.54F
LINCOLN*       SUNNY     62  40  44 S20G28    29.63F
SPRINGFIELD    SUNNY     65  39  38 S18G29    29.64F
TAYLORVILLE    SUNNY     61  39  44 S17       29.67F
$$

ILZ033-039-045-046-055>057-062-063-242000-
EAST-CENTRAL ILLINOIS

CITY           SKY/WX    TMP DP  RH WIND       PRES   REMARKS
CHAMPAIGN      SUNNY     59  37  44 S24       29.70F
DANVILLE*      SUNNY     56  36  48 S21G26    29.68F
RANTOUL*       SUNNY     60  41  49 S17       29.68F
MATTOON        SUNNY     56  37  49 S13G23    29.72F
PARIS*         SUNNY     56  38  52 S18       29.75F
$$

ILZ079-100>102-242000-
SOUTHWEST ILLINOIS

CITY           SKY/WX    TMP DP  RH WIND       PRES   REMARKS
ALTON          SUNNY     64  41  42 S14G21    29.70F
BELLEVILLE     SUNNY     65  37  34 S16       29.71F
CAHOKIA*       SUNNY     70  36  28 S13G22    29.69F
SPARTA*        SUNNY     62  37  38 S12G21    29.77F
$$

ILZ064>066-069>071-074>076-080>082-084>086-088>090-092>094-242000-
SOUTH-CENTRAL ILLINOIS

CITY           SKY/WX    TMP DP  RH WIND       PRES   REMARKS
CARBONDALE     SUNNY     61  33  35 SW15      29.81F
CAIRO*         SUNNY     59  35  40 S8        29.87F
EFFINGHAM*     SUNNY     58  36  43 SE12G17   29.77F
MARION         MOSUNNY   61  34  36 S12       29.84
MT. VERNON     SUNNY     61  36  39 S18       29.79F
CENTRALIA*     SUNNY     64  39  40 S20       29.76F
SALEM*         SUNNY     64  35  34 S12G18    29.76F
METROPOLIS*    SUNNY     61  33  34 S10G16    29.87F
$$

ILZ067-068-072-073-078-083-087-091-242000-
SOUTHEAST ILLINOIS

CITY           SKY/WX    TMP DP  RH WIND       PRES   REMARKS
LAWRENCEVILLE  SUNNY     54  35  48 S13       29.82F
FLORA*         MOSUNNY   58  38  45 S14       29.79F
FAIRFIELD*     MOSUNNY   58  35  41 S3        29.80F
HARRISBURG*    MOSUNNY   61  35  37 SW15G21   29.84F
ROBINSON*      SUNNY     56  34  42 S14G22    29.80F
CARMI*         MOSUNNY   58  34  40 S17       29.83F
$$

ABBREVIATIONS USED IN REMARKS
   TC - TEMPERATURE IN CELSIUS
  WCI - WIND CHILL INDEX
   HX - HEAT INDEX
  VSB - VISIBILITY
$$




USA.gov is the U.S. government's official web portal to all federal, state and local government web resources and services.